User: anonymous   Login
Location: Birkenwerder
(52.6919°N, 13.2774°E)
Time: 12:34:27
(UTC+00:00)
Language:

STARLINK-1349 - Orbit

View from above orbital plane
View from above orbital plane
View from above satellite
View from above satellite

Ground track
Ground track

The orbit data is extracted from the following two-line orbital elements,

1 45587U 20025BJ  20218.91667824 +.00044950 +00000-0 +10367-2 0  9995
2 45587 052.9996 245.0823 0001226 068.8215 252.6843 15.42146104001768
Epoch (UTC): 05 August 2020 22:00:01
Eccentricity: 0.0001226
inclination: 52.9996°
perigee height: 439 km
apogee height: 440 km
right ascension of ascending node: 245.0823°
argument of perigee: 68.8215°
revolutions per day: 15.42146104
mean anomaly at epoch: 252.6843°
orbit number at epoch: 176

The dashed part of the orbit path shows where the satellite is in the earth's shadow,  

DLR